Location: Daouli
(14.8671°N, 3.2030°W)
Time: 22:32:42
(UTC+00:00)

Okean-O - Pass Details

Date: 29 October 2020
Orbit: 638 x 641 km, 98.2° (Epoch: 03 December)

Event Time Altitude Azimuth Distance (km) Brightness Sun altitude
Rises 19:27:17 0° 182° (S) 2,933 6.2 -25.0°
Reaches altitude 10° 19:29:34 10° 189° (S) 2,025 5.4 -25.6°
Maximum altitude 19:33:44 41° 259° (W) 922 3.8 -26.6°
Drops below altitude 10° 19:37:55 10° 330° (NNW) 2,027 5.4 -27.6°
Sets 19:40:13 0° 337° (NNW) 2,937 6.2 -28.1°
